Home > Weather > Salvador > Past weeks

Flag for Brazil Past Weather in Salvador, Bahia, Brazil — Yesterday and Last 2 Weeks

Now
75 °F

Broken clouds.


Feels Like: 75 °F
Forecast: 74 / 77 °F
Wind: 18 mph from South

Location: Salvador Aeroporto

Current Time: Jun 26, 2016 at 8:57:36 AM

Latest Report: Jun 26, 2016 at 8:00 AM


Visibility: 5 mi

Pressure: 30.12 "Hg

Humidity: 83%

Dew Point: 70 °F

Location of SalvadorLocation

Past Weather in Salvador — Graph

°F

Salvador Temperature Yesterday

Maximum temperature yesterday: 84 °F (at 12:00 PM)
Minimum temperature yesterday: 75 °F (at 10:00 PM)
Average temperature yesterday: 79 °F

High & Low Weather Summary for the Past Weeks

 TemperatureHumidityPressure
High84 °F (Jun 11, 11:00 AM)100% (Jun 18, 7:00 PM)30.24 "Hg (Jun 18, 7:00 PM)
Low39 °F (Jun 18, 7:00 PM)51% (Jun 17, 10:00 AM)30.01 "Hg (Jun 11, 2:00 PM)
Average78 °F71%30.10 "Hg
* Reported Jun 11 7:00 AM — Jun 26 7:00 AM, Salvador, Weather by CustomWeather, © 2016

Note: Actual official high and low records may vary slightly from our data, if they occured in-between our weather recording intervals... More about our weather records

Advertising

Salvador Weather History for the Previous 24 Hours

Scroll right to see more
 ConditionsComfort  
Time TempWeatherWind HumidityBarometerVisibility
7:00 AM
Sun, Jun 26
75 °FScattered clouds.14 mph78%30.09 "HgN/A
6:00 AM75 °FScattered clouds.17 mph78%30.09 "HgN/A
5:00 AM75 °FPartly cloudy.18 mph83%30.07 "HgN/A
4:00 AM77 °FPassing clouds.13 mph74%30.07 "HgN/A
3:00 AM75 °FPassing clouds.20 mph78%30.07 "Hg5 mi
2:00 AM75 °FMostly cloudy.10 mph78%30.07 "Hg5 mi
1:00 AM75 °FMostly cloudy.9 mph78%30.09 "HgN/A
12:00 AM77 °FPartly cloudy.15 mph69%30.09 "HgN/A
11:00 PM
Sat, Jun 25
77 °FPassing clouds.17 mph79%30.09 "Hg5 mi
10:00 PM75 °FLight rain. Passing clouds.16 mph78%30.12 "Hg5 mi
9:00 PM79 °FPassing clouds.14 mph70%30.09 "HgN/A
8:00 PM79 °FPartly cloudy.16 mph70%30.09 "HgN/A
7:00 PM79 °FPartly cloudy.12 mph70%30.07 "HgN/A
6:00 PM81 °FPassing clouds.17 mph70%30.07 "HgN/A
5:00 PM81 °FScattered clouds.12 mph70%30.07 "HgN/A
4:00 PM81 °FScattered clouds.10 mph70%30.07 "HgN/A
3:00 PM81 °FScattered clouds.14 mph66%30.07 "HgN/A
2:00 PM82 °FScattered clouds.15 mph62%30.07 "HgN/A
1:00 PM82 °FScattered clouds.14 mph62%30.09 "HgN/A
12:00 PM84 °FScattered clouds.14 mph58%30.09 "HgN/A
11:00 AM82 °FScattered clouds.16 mph62%30.12 "HgN/A
10:00 AM82 °FScattered clouds.14 mph62%30.12 "HgN/A
9:00 AM81 °FScattered clouds.12 mph66%30.12 "HgN/A
8:00 AM79 °FScattered clouds.13 mph65%30.12 "HgN/A
Weather by CustomWeather, © 2016

See weather overviewHow to use our weather pages